Weather History for Jacksonville, IL

Change the Weather History Date:

Tuesday, April 30, 2013

  Actual Average (KSPI) Record (KSPI)
Temperature  
Mean Temperature 72 °F 59 °F  
Max Temperature 84 °F 70 °F 88 °F (1942)
Min Temperature 61 °F 47 °F 34 °F (1971)
Degree Days  
Heating Degree Days 0 7  
Month to date heating degree days 365  
Since 1 July heating degree days 5345  
Cooling Degree Days 8 1  
Month to date cooling degree days 18  
Year to date cooling degree days 20  
Growing Degree Days 22 (Base 50)    
Moisture  
Dew Point 56 °F    
Average Humidity 59    
Maximum Humidity 86    
Minimum Humidity 32    
Precipitation  
Precipitation 0.00 in 0.13 in 3.58 in (1970)
Month to date precipitation 3.51  
Year to date precipitation 9.77  
Snow  
Snow 0.00 in 0.00 in 0.00 in ()
Month to date snowfall 0.3  
Since 1 July snowfall 20.9  
Snow Depth -    
Sea Level Pressure  
Sea Level Pressure 29.85 in    
Wind  
Wind Speed 13 mph (South)    
Max Wind Speed 18 mph    
Max Gust Speed 25 mph    
Visibility 10 miles    
Events      
T = Trace of Precipitation, MM = Missing Value Source: NWS Daily Summary

Daily Weather History Graph

Daily Weather History Graph

Search for Another Location

Airport:

Trip Planner

Search our weather history database for the weather conditions in past years. The results will help you decide how hot, cold, wet, or windy it might be!

Date:

Astronomy

Apr. 30, 2013 Rise Set
Actual Time 6:02 AM CDT 7:54 PM CDT
Civil Twilight 5:33 AM CDT 8:23 PM CDT
Nautical Twilight 4:57 AM CDT 8:59 PM CDT
Astronomical Twilight 4:19 AM CDT 9:37 PM CDT
Moon 12:17 AM CDT (4/30) 10:31 AM CDT (4/30)
Length of Visible Light 14h 50m
Length of Day
13h 52m
Waning Gibbous, 70% of the Moon is Illuminated
Apr 30
Waning Gibbous
May 2
Last Quarter
May 9
New
May 17
First Quarter
May 24
Full

Hourly Weather History & Observations

Time (CDT) Temp. Heat Index Dew Point Humidity Pressure Visibility Wind Dir Wind Speed Gust Speed Precip Events Conditions
12:15 AM 65.3 °F - 58.1 °F 77% 29.78 in 10.0 mi South 18.4 mph 21.9 mph N/A   Clear
12:35 AM 65.3 °F - 58.3 °F 78% 29.77 in 10.0 mi South 13.8 mph - N/A   Clear
12:55 AM 65.3 °F - 58.5 °F 78% 29.78 in 10.0 mi South 13.8 mph 19.6 mph N/A   Clear
1:15 AM 64.9 °F - 58.3 °F 79% 29.78 in 10.0 mi SSW 12.7 mph 17.3 mph N/A   Clear
1:35 AM 64.6 °F - 58.5 °F 80% 29.78 in 10.0 mi South 12.7 mph 19.6 mph N/A   Clear
1:55 AM 64.4 °F - 58.3 °F 80% 29.78 in 10.0 mi South 12.7 mph - N/A   Clear
2:15 AM 64.4 °F - 58.3 °F 80% 29.78 in 10.0 mi South 13.8 mph 20.7 mph N/A   Clear
2:35 AM 63.9 °F - 58.3 °F 82% 29.78 in 10.0 mi South 13.8 mph - N/A   Clear
2:55 AM 63.7 °F - 58.3 °F 83% 29.79 in 10.0 mi South 10.4 mph - N/A   Clear
3:15 AM 63.5 °F - 58.3 °F 83% 29.79 in 10.0 mi South 11.5 mph 18.4 mph N/A   Clear
3:35 AM 63.5 °F - 58.3 °F 83% 29.80 in 10.0 mi South 11.5 mph 17.3 mph N/A   Clear
3:55 AM 63.1 °F - 58.3 °F 84% 29.79 in 10.0 mi South 12.7 mph 16.1 mph N/A   Clear
4:15 AM 63.0 °F - 58.1 °F 84% 29.80 in 10.0 mi South 9.2 mph - N/A   Clear
4:35 AM 62.8 °F - 58.1 °F 85% 29.80 in 10.0 mi South 13.8 mph 18.4 mph N/A   Clear
4:55 AM 62.6 °F - 58.1 °F 85% 29.80 in 10.0 mi South 15.0 mph - N/A   Clear
5:15 AM 62.6 °F - 58.1 °F 85% 29.80 in 10.0 mi South 11.5 mph 17.3 mph N/A   Clear
5:35 AM 62.4 °F - 58.1 °F 86% 29.80 in 10.0 mi South 10.4 mph - N/A   Clear
5:55 AM 62.1 °F - 57.7 °F 86% 29.81 in 10.0 mi South 10.4 mph - N/A   Clear
6:15 AM 62.1 °F - 57.6 °F 85% 29.82 in 10.0 mi South 8.1 mph - N/A   Clear
6:35 AM 61.9 °F - 57.6 °F 86% 29.83 in 10.0 mi South 9.2 mph - N/A   Clear
6:55 AM 62.6 °F - 57.7 °F 84% 29.84 in 10.0 mi South 10.4 mph - N/A   Clear
7:15 AM 63.0 °F - 57.7 °F 83% 29.85 in 10.0 mi South 8.1 mph - N/A   Clear
7:35 AM 64.4 °F - 58.3 °F 80% 29.85 in 10.0 mi South 10.4 mph - N/A   Clear
7:55 AM 64.8 °F - 58.1 °F 79% 29.86 in 10.0 mi South 9.2 mph - N/A   Clear
8:15 AM 66.0 °F - 58.6 °F 77% 29.86 in 10.0 mi South 9.2 mph - N/A   Clear
8:35 AM 67.3 °F - 59.0 °F 75% 29.86 in 10.0 mi South 9.2 mph - N/A   Clear
8:55 AM 68.9 °F - 59.2 °F 71% 29.86 in 10.0 mi South 8.1 mph - N/A   Clear
9:15 AM 70.7 °F - 59.4 °F 67% 29.86 in 10.0 mi SSW 10.4 mph 16.1 mph N/A   Clear
9:35 AM 71.4 °F - 59.7 °F 66% 29.86 in 10.0 mi SSW 12.7 mph - N/A   Clear
9:55 AM 72.9 °F - 60.3 °F 65% 29.86 in 10.0 mi SSW 11.5 mph - N/A   Clear
10:15 AM 74.7 °F - 60.4 °F 61% 29.86 in 10.0 mi SSW 10.4 mph 17.3 mph N/A   Clear
10:35 AM 77.0 °F - 58.8 °F 53% 29.86 in 10.0 mi SW 13.8 mph 17.3 mph N/A   Clear
10:55 AM 77.9 °F - 58.3 °F 51% 29.87 in 10.0 mi SW 13.8 mph 20.7 mph N/A   Clear
11:15 AM 78.6 °F - 58.6 °F 50% 29.87 in 10.0 mi SSW 12.7 mph 20.7 mph N/A   Clear
11:35 AM 79.7 °F - 56.5 °F 45% 29.87 in 10.0 mi SW 13.8 mph 20.7 mph N/A   Clear
11:55 AM 80.8 °F 81.0 °F 57.4 °F 45% 29.87 in 10.0 mi SSW 15.0 mph 19.6 mph N/A   Clear
12:15 PM 81.1 °F 81.2 °F 57.6 °F 44% 29.86 in 10.0 mi SSW 11.5 mph - N/A   Clear
12:35 PM 81.7 °F 81.6 °F 57.6 °F 44% 29.86 in 10.0 mi SSW 10.4 mph 17.3 mph N/A   Clear
12:55 PM 82.2 °F 81.9 °F 57.2 °F 42% 29.85 in 10.0 mi SW 11.5 mph - N/A   Clear
1:15 PM 82.4 °F 82.2 °F 58.1 °F 43% 29.85 in 10.0 mi South 12.7 mph 19.6 mph N/A   Clear
1:35 PM 82.8 °F 82.4 °F 57.7 °F 42% 29.85 in 10.0 mi South 12.7 mph 18.4 mph N/A   Clear
1:55 PM 83.3 °F 82.6 °F 56.5 °F 40% 29.84 in 10.0 mi South 18.4 mph 23.0 mph N/A   Clear
2:15 PM 83.7 °F 82.4 °F 53.8 °F 36% 29.84 in 10.0 mi South 15.0 mph 25.3 mph N/A   Clear
2:35 PM 84.2 °F - 51.4 °F 32% 29.84 in 10.0 mi South 18.4 mph 21.9 mph N/A   Clear
2:55 PM 83.8 °F - 52.2 °F 33% 29.84 in 10.0 mi South 18.4 mph 25.3 mph N/A   Clear
3:15 PM 84.2 °F 82.9 °F 54.9 °F 36% 29.84 in 10.0 mi SSE 15.0 mph 20.7 mph N/A   Clear
3:35 PM 83.8 °F - 52.5 °F 34% 29.84 in 10.0 mi South 13.8 mph 21.9 mph N/A   Clear
3:55 PM 84.2 °F 82.8 °F 54.1 °F 35% 29.84 in 10.0 mi South 16.1 mph 19.6 mph N/A   Clear
4:15 PM 83.8 °F 83.0 °F 56.3 °F 39% 29.84 in 10.0 mi SSE 13.8 mph 20.7 mph N/A   Clear
4:35 PM 83.7 °F 82.7 °F 55.8 °F 38% 29.85 in 10.0 mi South 11.5 mph 20.7 mph N/A   Clear
4:55 PM 83.7 °F 82.8 °F 56.3 °F 39% 29.85 in 10.0 mi SSE 15.0 mph 21.9 mph N/A   Clear
5:15 PM 83.5 °F 82.4 °F 54.3 °F 37% 29.85 in 10.0 mi SSE 11.5 mph 23.0 mph N/A   Clear
5:35 PM 83.1 °F 82.1 °F 54.5 °F 37% 29.86 in 10.0 mi SSE 12.7 mph 20.7 mph N/A   Clear
5:55 PM 82.8 °F 81.6 °F 53.1 °F 36% 29.85 in 10.0 mi SSE 15.0 mph - N/A   Clear
6:15 PM 82.2 °F 81.3 °F 53.8 °F 37% 29.86 in 10.0 mi SSE 12.7 mph 19.6 mph N/A   Clear
6:35 PM 81.0 °F 80.7 °F 54.9 °F 41% 29.86 in 10.0 mi SSE 12.7 mph - N/A   Clear
6:55 PM 80.6 °F 80.5 °F 55.4 °F 42% 29.86 in 10.0 mi SSE 12.7 mph - N/A   Clear
7:15 PM 78.1 °F - 55.2 °F 45% 29.87 in 10.0 mi SSE 13.8 mph 21.9 mph N/A   Clear
7:35 PM 77.0 °F - 54.5 °F 46% 29.87 in 10.0 mi SSE 12.7 mph 18.4 mph N/A   Clear
7:55 PM 75.9 °F - 54.0 °F 46% 29.88 in 10.0 mi SSE 12.7 mph 19.6 mph N/A   Clear
8:15 PM 74.7 °F - 53.6 °F 48% 29.88 in 10.0 mi SE 11.5 mph - N/A   Clear
8:35 PM 74.3 °F - 52.7 °F 47% 29.89 in 10.0 mi SE 11.5 mph - N/A   Clear
8:55 PM 73.8 °F - 52.3 °F 47% 29.90 in 10.0 mi SSE 13.8 mph 18.4 mph N/A   Clear
9:15 PM 73.4 °F - 52.7 °F 48% 29.90 in 10.0 mi SSE 16.1 mph 21.9 mph N/A   Clear
9:35 PM 73.4 °F - 53.1 °F 49% 29.91 in 10.0 mi SSE 15.0 mph 23.0 mph N/A   Clear
9:55 PM 72.9 °F - 53.6 °F 51% 29.92 in 10.0 mi SSE 16.1 mph 21.9 mph N/A   Clear
10:15 PM 72.5 °F - 53.8 °F 52% 29.93 in 10.0 mi SSE 18.4 mph 21.9 mph N/A   Clear
10:35 PM 72.0 °F - 53.8 °F 53% 29.93 in 10.0 mi SSE 15.0 mph 21.9 mph N/A   Clear
10:55 PM 71.6 °F - 53.8 °F 53% 29.94 in 10.0 mi SSE 13.8 mph 21.9 mph N/A   Clear
11:15 PM 71.2 °F - 54.1 °F 55% 29.95 in 10.0 mi SSE 15.0 mph 19.6 mph N/A   Clear
11:35 PM 70.5 °F - 54.5 °F 57% 29.95 in 10.0 mi South 12.7 mph - N/A   Clear
11:55 PM 69.8 °F - 55.4 °F 60% 29.96 in 10.0 mi South 10.4 mph 16.1 mph N/A   Clear